CZ-6A DEB, 60836

Orbit data source: Space-Track

CZ-6A DEB, 60836 is space debris in LEO originally from a launch on Tue, 06 Aug 2024 UTC launched from the Taiyaun Space Center, China (TSC). Debris objects in space refer to the collection of defunct objects orbiting the Earth. Examples of debris include non-operational satellites, rocket bodies, and fragments generated from explosions, collisions, or faulty payload assembly.

Loading next visibility...
Identifier
60836, 2024-140HP
Orbit
LEO
Country
Flag of CNCN / PRC
Related business
Manufacturer
SAST
Mission
Spacecraft
Bus & Motor
Unknown
Mass
Unknown
Launch date (UTC)
2024-08-06 (2 years ago)
Launch vehicle
Unknown
Launch site
Taiyaun Space Center, China (TSC)
Object type
Payload
Rocket body
Debris
Shape & HBR
Unknown shape, 0.2 m
Radar Cross Section
Medium (>0.1 m² and <1 m²)

Expand to show TLE details & history
Last TLE update: 16 hours ago

TLE from 16 hours ago
0 CZ-6A DEB
1 60836U 24140HP  26171.23949645  .00003625  00000-0  61505-3 0  9999
2 60836  88.9914 268.2532 0102152 220.8700 138.4825 14.65601248 97949
Epoch: 2026-06-20T05:44Z
TLE epoch observation values (Epoch: 2026-06-20T05:44:52.493Z)
Latitude
-0.00007°
Longitude
-86.42249°
Altitude
732.544 km
Speed
7.46 km/s
True Right ascension
17h 53m 00s
True Declination
0° 00' 00"
Sunlit
Object was in full shadow at epoch
Visualization orbit readout
Latitude
Unknown
Longitude
Unknown
Altitude
Unknown
Speed
Unknown
Apparent Right ascension
Unknown
Apparent Declination
Unknown
Sunlit
N/A
Visualization observer readout
Local Sidereal Time
08:42:02
Azimuth
Unknown
Elevation
Unknown
Doppler factor
Unknown
Orbital elements
Apogee altitude
744.05 km
Perigee altitude
600.013 km
Semi-major axis
7,050.168 km
Eccentricity
0.01022
Inclination
88.9914°
RAAN
268.2532°
Arg. of periapsis
220.87°
True anomaly
139.25104°
Mean anomaly
138.4825°
Eccentric anomaly
138.8675°
Mean motion
3.66643 °/min
Orbital period
98.19 mins
BSTAR
0.00061505
Loading maneuver chart data...
Computing Atmospheric mass density...
Loading historical data...
Loading historical data...
Loading historical data...
Loading historical data...
Loading historical data...
Loading historical data...
Loading historical data...

Documentation

Showing up to 5 results
|